Date String (YYYY-MM-DD hh:mm:ss) UTC,Instrument flags,Ambient pressure (hPa),Sample flow (lpm),Bypass flow (lpm),Sample temperature (°C),Ambient temperature (°C),ASC tube jacket temperature (°C),LED temperature (°C),Box temperature (°C),Sample RH (%),Span deviation,Mass concentration (μg/m³),Mass concentration (μg/m³),Mass concentration (μg/m³)
DateTimeUTC,F1_M11,P_M11,Q1_M11,Q2_M11,T1_M11,T2_M11,T3_M11,T4_M11,T5_M11,U1_M11,ZSPAN_M11,X0_M11,X2_M11,X1_M11
2022-03-29 04:00:00,,0813.3,4.99,0.00,29.6,28.6,00.0,38.7,31.3,06.1,0000.0,0009.15,0002.55,0001.43
2022-03-29 04:01:00,,0813.3,5.01,0.00,29.6,28.5,00.0,38.7,31.3,06.0,0000.0,0009.11,0002.51,0001.42
2022-03-29 04:02:00,,0813.3,4.99,0.00,29.6,28.5,00.0,38.7,31.3,06.0,0000.0,0008.56,0002.45,0001.42
2022-03-29 04:03:00,,0813.2,5.01,0.00,29.6,28.5,00.0,38.6,31.2,06.1,0000.0,0008.73,0002.43,0001.41
2022-03-29 04:04:00,,0813.3,4.99,0.00,29.6,28.5,00.0,38.6,31.2,06.2,0000.0,0008.63,0002.45,0001.42
2022-03-29 04:05:00,,0813.2,4.99,0.00,29.6,28.5,00.0,38.6,31.3,06.4,0000.0,0008.38,0002.45,0001.43
2022-03-29 04:06:00,,0813.2,5.02,0.00,29.6,28.5,00.0,38.6,31.3,06.2,0000.0,0007.94,0002.45,0001.42
2022-03-29 04:07:00,,0813.1,5.00,0.00,29.6,28.5,00.0,38.6,31.3,06.4,0000.0,0007.91,0002.46,0001.43
2022-03-29 04:08:00,,0813.1,4.99,0.00,29.6,28.4,00.0,38.6,31.2,06.4,0000.0,0007.89,0002.43,0001.43
2022-03-29 04:09:00,,0813.1,5.01,0.00,29.6,28.4,00.0,38.6,31.3,06.2,0000.0,0007.57,0002.46,0001.45
2022-03-29 04:10:00,,0813.1,4.99,0.00,29.6,28.5,00.0,38.6,31.3,06.2,0000.0,0008.55,0002.45,0001.45
2022-03-29 04:11:00,,0813.0,5.01,0.00,29.6,28.5,00.0,38.6,31.3,06.3,0000.0,0008.25,0002.44,0001.44
2022-03-29 04:12:00,,0813.0,4.99,0.00,29.6,28.5,00.0,38.6,31.3,06.3,0000.0,0008.14,0002.41,0001.43
2022-03-29 04:13:00,,0813.0,5.00,0.00,29.6,28.6,00.0,38.6,31.3,06.2,0000.0,0008.63,0002.47,0001.44
2022-03-29 04:14:00,,0812.9,4.99,0.00,29.6,28.6,00.0,38.7,31.3,06.2,0000.0,0008.30,0002.52,0001.45
2022-03-29 04:15:00,,0812.9,5.01,0.00,29.6,28.5,00.0,38.6,31.2,06.1,0000.0,0008.50,0002.52,0001.45
2022-03-29 04:16:00,,0813.0,5.01,0.00,29.6,28.5,00.0,38.6,31.3,06.0,0000.0,0009.09,0002.47,0001.46
2022-03-29 04:17:00,,0813.0,4.99,0.00,29.6,28.5,00.0,38.7,31.3,06.0,0000.0,0009.28,0002.49,0001.46
2022-03-29 04:18:00,,0812.9,5.01,0.00,29.6,28.5,00.0,38.7,31.3,06.2,0000.0,0009.25,0002.47,0001.46
2022-03-29 04:19:00,,0812.9,4.99,0.00,29.6,28.5,00.0,38.7,31.3,06.2,0000.0,0009.28,0002.48,0001.47
2022-03-29 04:20:00,,0812.9,5.02,0.00,29.6,28.5,00.0,38.6,31.3,06.3,0000.0,0010.06,0002.53,0001.47
2022-03-29 04:21:00,,0812.9,4.99,0.00,29.6,28.5,00.0,38.6,31.3,06.2,0000.0,0009.45,0002.54,0001.48
2022-03-29 04:22:00,,0812.9,5.00,0.00,29.7,28.5,00.0,38.7,31.3,06.5,0000.0,0009.69,0002.54,0001.49
2022-03-29 04:23:00,,0813.0,5.00,0.00,29.6,28.6,00.0,38.7,31.4,05.9,0000.0,0009.86,0002.57,0001.50
2022-03-29 04:24:00,,0812.9,4.99,0.00,29.6,28.6,00.0,38.7,31.3,05.8,0000.0,0010.28,0002.68,0001.51
2022-03-29 04:25:00,,0812.9,5.01,0.00,29.6,28.6,00.0,38.7,31.3,06.2,0000.0,0010.57,0002.67,0001.50
2022-03-29 04:26:00,,0813.0,5.00,0.00,29.6,28.5,00.0,38.7,31.3,06.1,0000.0,0010.40,0002.66,0001.49
2022-03-29 04:27:00,,0812.9,5.01,0.00,29.7,28.5,00.0,38.7,31.3,05.9,0000.0,0010.18,0002.68,0001.48
2022-03-29 04:28:00,,0812.8,4.98,0.00,29.7,28.5,00.0,38.7,31.3,05.9,0000.0,0009.82,0002.68,0001.49
2022-03-29 04:29:00,,0812.8,5.02,0.00,29.7,28.5,00.0,38.7,31.3,06.2,0000.0,0010.20,0002.65,0001.49
2022-03-29 04:30:00,,0812.9,4.98,0.00,29.7,28.6,00.0,38.7,31.4,05.9,0000.0,0011.13,0002.67,0001.47
2022-03-29 04:31:00,,0812.9,4.99,0.00,29.7,28.6,00.0,38.7,31.4,06.1,0000.0,0010.74,0002.65,0001.47
2022-03-29 04:32:00,,0812.8,5.01,0.00,29.7,28.7,00.0,38.7,31.4,07.0,0000.0,0010.50,0002.60,0001.46
2022-03-29 04:33:00,,0812.9,4.98,0.00,29.7,28.7,00.0,38.7,31.4,06.9,0000.0,0010.22,0002.49,0001.43
2022-03-29 04:34:00,,0812.9,5.02,0.00,29.7,28.7,00.0,38.7,31.5,06.8,0000.0,0010.01,0002.46,0001.41
2022-03-29 04:35:00,,0812.9,5.00,0.00,29.7,28.7,00.0,38.7,31.5,06.9,0000.0,0009.38,0002.36,0001.40
2022-03-29 04:36:00,,0812.8,4.99,0.00,29.7,28.8,00.0,38.7,31.4,06.8,0000.0,0008.68,0002.31,0001.39
2022-03-29 04:37:00,,0812.8,5.00,0.00,29.7,28.8,00.0,38.7,31.4,06.7,0000.0,0008.61,0002.30,0001.39
2022-03-29 04:38:00,,0812.8,5.01,0.00,29.7,28.8,00.0,38.7,31.4,06.7,0000.0,0008.34,0002.26,0001.40
2022-03-29 04:39:00,,0812.9,4.98,0.00,29.7,28.8,00.0,38.7,31.4,06.6,0000.0,0008.17,0002.26,0001.39
2022-03-29 04:40:00,,0812.9,5.00,0.00,29.7,28.8,00.0,38.7,31.4,06.9,0000.0,0008.77,0002.26,0001.40
2022-03-29 04:41:00,,0812.8,5.02,0.00,29.7,28.8,00.0,38.7,31.4,07.1,0000.0,0008.58,0002.24,0001.40
2022-03-29 04:42:00,,0812.8,5.00,0.00,29.7,28.8,00.0,38.7,31.4,07.0,0000.0,0008.66,0002.21,0001.39
2022-03-29 04:43:00,,0812.8,5.00,0.00,29.7,28.7,00.0,38.7,31.4,06.7,0000.0,0008.34,0002.19,0001.37
2022-03-29 04:44:00,,0812.9,5.00,0.00,29.7,28.7,00.0,38.7,31.4,07.0,0000.0,0008.03,0002.26,0001.38
2022-03-29 04:45:00,,0812.8,5.00,0.00,29.7,28.7,00.0,38.7,31.4,07.1,0000.0,0007.93,0002.31,0001.39
2022-03-29 04:46:00,,0812.9,4.99,0.00,29.7,28.7,00.0,38.7,31.4,07.1,0000.0,0008.08,0002.34,0001.38
2022-03-29 04:47:00,,0812.9,5.01,0.00,29.7,28.7,00.0,38.7,31.4,07.2,0000.0,0008.15,0002.32,0001.38
2022-03-29 04:48:00,,0812.9,5.00,0.00,29.7,28.8,00.0,38.7,31.4,07.1,0000.0,0008.53,0002.30,0001.37
2022-03-29 04:49:00,,0812.9,5.00,0.00,29.7,28.8,00.0,38.7,31.4,07.1,0000.0,0008.58,0002.31,0001.36
2022-03-29 04:50:00,,0812.9,5.01,0.00,29.7,28.8,00.0,38.7,31.4,07.0,0000.0,0008.77,0002.32,0001.35
2022-03-29 04:51:00,,0813.0,4.99,0.00,29.7,28.8,00.0,38.7,31.4,06.9,0000.0,0007.96,0002.36,0001.34
2022-03-29 04:52:00,,0812.9,5.01,0.00,29.7,28.8,00.0,38.7,31.4,06.9,0000.0,0007.22,0002.47,0001.34
2022-03-29 04:53:00,,0812.9,4.99,0.00,29.7,28.9,00.0,38.7,31.4,06.9,0000.0,0007.31,0002.48,0001.34
2022-03-29 04:54:00,,0812.9,5.00,0.00,29.7,28.9,00.0,38.7,31.5,06.8,0000.0,0007.23,0002.53,0001.36
2022-03-29 04:55:00,,0812.9,5.01,0.00,29.7,28.9,00.0,38.7,31.5,06.6,0000.0,0007.33,0002.54,0001.37
2022-03-29 04:56:00,,0812.9,4.99,0.00,29.8,28.9,00.0,38.7,31.5,06.6,0000.0,0007.43,0002.60,0001.39
2022-03-29 04:57:00,,0812.9,5.00,0.00,29.8,28.9,00.0,38.7,31.5,06.6,0000.0,0007.49,0002.68,0001.41
2022-03-29 04:58:00,,0812.9,4.99,0.00,29.8,28.9,00.0,38.7,31.5,06.6,0000.0,0007.56,0002.80,0001.42
2022-03-29 04:59:00,,0812.9,4.99,0.00,29.8,28.9,00.0,38.7,31.5,06.6,0000.0,0007.33,0002.91,0001.45
